Location: Beaver Brook Station
(42.3793°N, 71.2203°W)
Time: 05:52:49
(UTC+00:00)

X-37B - Pass Details

Date: 22 January 2021
Orbit: 383 x 391 km, 45.0° (Epoch: 27 February)

Event Time Altitude Azimuth Distance (km) Brightness Sun altitude
Rises 00:18:17 0° 272° (W) 2,274 5.7 -28.0°
Reaches altitude 10° 00:20:24 10° 277° (W) 1,421 4.4 -28.4°
Enters shadow 00:21:07 15° 281° (W) 1,141 3.7 -28.6°
